TimeMST,TemperatureF,Dew PointF,Humidity,Sea Level PressureIn,VisibilityMPH,Wind Direction,Wind SpeedMPH,Gust SpeedMPH,PrecipitationIn,Events,Conditions,WindDirDegrees,DateUTC
12:15 AM,36.5,23.4,59,29.89,10.0,West,19.6,-,N/A,,Overcast,260,2012-12-09 07:15:00
12:35 AM,34.9,24.8,67,29.89,10.0,WSW,18.4,-,N/A,,Overcast,250,2012-12-09 07:35:00
12:55 AM,34.5,24.1,66,29.88,10.0,WSW,18.4,25.3,N/A,,Overcast,250,2012-12-09 07:55:00
1:15 AM,34.2,24.1,67,29.88,10.0,WSW,18.4,27.6,N/A,,Overcast,240,2012-12-09 08:15:00
1:35 AM,32.5,25.2,74,29.89,10.0,WSW,21.9,27.6,N/A,,Overcast,240,2012-12-09 08:35:00
1:55 AM,31.3,24.8,77,29.89,10.0,WSW,24.2,28.8,N/A,,Overcast,240,2012-12-09 08:55:00
2:15 AM,29.7,24.4,81,29.90,10.0,WSW,20.7,29.9,N/A,,Overcast,240,2012-12-09 09:15:00
2:35 AM,29.3,23.9,80,29.90,10.0,WSW,21.9,29.9,N/A,,Overcast,250,2012-12-09 09:35:00
2:55 AM,28.6,23.2,80,29.91,10.0,WSW,23.0,28.8,N/A,,Overcast,250,2012-12-09 09:55:00
3:15 AM,27.7,22.6,81,29.91,10.0,WSW,23.0,33.4,N/A,,Overcast,240,2012-12-09 10:15:00
3:35 AM,27.7,21.7,78,29.92,10.0,WSW,15.0,24.2,N/A,,Overcast,250,2012-12-09 10:35:00
3:55 AM,27.9,21.2,76,29.92,10.0,WSW,17.3,-,N/A,,Overcast,240,2012-12-09 10:55:00
4:15 AM,25.7,20.3,80,29.94,10.0,WSW,26.5,33.4,N/A,,Mostly Cloudy,250,2012-12-09 11:15:00
4:35 AM,26.1,18.5,73,29.94,10.0,WSW,26.5,35.7,N/A,,Overcast,250,2012-12-09 11:35:00
4:55 AM,26.1,18.1,72,29.96,10.0,West,24.2,34.5,N/A,,Overcast,260,2012-12-09 11:55:00
5:15 AM,26.2,16.3,66,29.97,10.0,West,21.9,32.2,N/A,,Overcast,260,2012-12-09 12:15:00
5:35 AM,26.1,15.8,65,29.98,10.0,West,25.3,29.9,N/A,,Mostly Cloudy,260,2012-12-09 12:35:00
5:55 AM,25.9,14.9,63,29.99,10.0,WSW,23.0,27.6,N/A,,Scattered Clouds,250,2012-12-09 12:55:00
6:15 AM,26.2,13.5,59,30.00,10.0,West,23.0,29.9,N/A,,Scattered Clouds,260,2012-12-09 13:15:00
6:35 AM,26.2,11.5,54,30.00,10.0,West,15.0,28.8,N/A,,Clear,260,2012-12-09 13:35:00
6:55 AM,26.4,10.4,51,30.02,10.0,West,16.1,24.2,N/A,,Scattered Clouds,260,2012-12-09 13:55:00
7:15 AM,26.4,8.6,47,30.03,10.0,WNW,10.4,-,N/A,,Mostly Cloudy,290,2012-12-09 14:15:00
7:35 AM,25.7,10.2,52,30.04,10.0,West,9.2,18.4,N/A,,Scattered Clouds,260,2012-12-09 14:35:00
7:55 AM,25.7,11.5,55,30.05,10.0,Calm,Calm,-,N/A,,Mostly Cloudy,0,2012-12-09 14:55:00
8:15 AM,25.9,9.3,50,30.06,10.0,Calm,Calm,-,N/A,,Overcast,0,2012-12-09 15:15:00
8:35 AM,25.5,9.5,51,30.07,10.0,SSW,3.5,-,N/A,,Mostly Cloudy,210,2012-12-09 15:35:00
8:55 AM,25.9,10.0,51,30.08,10.0,Calm,Calm,-,N/A,,Scattered Clouds,0,2012-12-09 15:55:00
9:15 AM,27.3,9.9,48,30.08,10.0,Calm,Calm,-,N/A,,Clear,0,2012-12-09 16:15:00
9:35 AM,28.2,10.6,48,30.09,10.0,SSW,3.5,-,N/A,,Clear,200,2012-12-09 16:35:00
9:55 AM,30.2,5.5,35,30.09,10.0,SSW,3.5,-,N/A,,Clear,210,2012-12-09 16:55:00
10:15 AM,30.9,6.3,35,30.10,10.0,SSW,8.1,-,N/A,,Scattered Clouds,210,2012-12-09 17:15:00
10:35 AM,31.1,5.7,34,30.10,10.0,SW,8.1,-,N/A,,Mostly Cloudy,220,2012-12-09 17:35:00
10:55 AM,31.6,4.6,32,30.09,10.0,WSW,11.5,-,N/A,,Scattered Clouds,250,2012-12-09 17:55:00
11:15 AM,32.9,2.8,28,30.09,10.0,West,10.4,-,N/A,,Clear,270,2012-12-09 18:15:00
11:35 AM,33.1,3.0,28,30.08,10.0,SW,10.4,-,N/A,,Clear,220,2012-12-09 18:35:00
11:55 AM,34.3,-0.6,23,30.08,10.0,West,15.0,20.7,N/A,,Mostly Cloudy,270,2012-12-09 18:55:00
12:15 PM,32.9,-0.8,24,30.08,10.0,North,6.9,23.0,N/A,,Mostly Cloudy,10,2012-12-09 19:15:00
12:35 PM,32.0,-12.6,14,30.09,10.0,North,13.8,-,N/A,,Overcast,10,2012-12-09 19:35:00
12:55 PM,31.8,-12.5,14,30.09,10.0,North,20.7,-,N/A,,Scattered Clouds,360,2012-12-09 19:55:00
1:15 PM,32.0,-8.9,17,30.09,10.0,NNW,23.0,27.6,N/A,,Clear,340,2012-12-09 20:15:00
1:35 PM,32.5,-4.9,20,30.10,10.0,NNW,15.0,21.9,N/A,,Clear,340,2012-12-09 20:35:00
1:55 PM,33.3,-6.7,18,30.10,10.0,NW,13.8,-,N/A,,Clear,320,2012-12-09 20:55:00
2:15 PM,32.0,-11.6,15,30.11,10.0,NW,15.0,-,N/A,,Clear,320,2012-12-09 21:15:00
2:35 PM,32.9,-9.9,16,30.11,10.0,NW,11.5,21.9,N/A,,Clear,320,2012-12-09 21:35:00
2:55 PM,32.0,-9.4,17,30.13,10.0,NW,8.1,17.3,N/A,,Clear,320,2012-12-09 21:55:00
3:15 PM,32.2,-9.2,17,30.13,10.0,NW,12.7,16.1,N/A,,Clear,320,2012-12-09 22:15:00
3:35 PM,32.0,-7.8,18,30.15,10.0,NW,6.9,-,N/A,,Clear,320,2012-12-09 22:35:00
3:55 PM,32.0,-8.5,17,30.16,10.0,North,6.9,-,N/A,,Clear,350,2012-12-09 22:55:00
4:15 PM,31.5,-7.8,18,30.16,10.0,NNE,10.4,-,N/A,,Clear,20,2012-12-09 23:15:00
4:35 PM,29.1,-8.0,20,30.17,10.0,NE,5.8,-,N/A,,Clear,50,2012-12-09 23:35:00
4:55 PM,27.5,-7.4,22,30.17,10.0,NNE,4.6,-,N/A,,Clear,20,2012-12-09 23:55:00
5:15 PM,25.5,-5.8,25,30.18,10.0,North,5.8,-,N/A,,Clear,10,2012-12-10 00:15:00
5:35 PM,27.5,-7.2,22,30.18,10.0,NNW,4.6,-,N/A,,Clear,330,2012-12-10 00:35:00
5:55 PM,26.4,-6.7,23,30.19,10.0,Calm,Calm,-,N/A,,Clear,0,2012-12-10 00:55:00
6:15 PM,23.5,-6.7,26,30.20,10.0,Calm,Calm,-,N/A,,Clear,0,2012-12-10 01:15:00
6:35 PM,25.2,-6.5,25,30.21,10.0,Calm,Calm,-,N/A,,Clear,0,2012-12-10 01:35:00
6:55 PM,25.9,-6.0,25,30.22,10.0,Calm,Calm,-,N/A,,Clear,0,2012-12-10 01:55:00
7:15 PM,21.9,-4.2,32,30.22,10.0,Calm,Calm,-,N/A,,Clear,0,2012-12-10 02:15:00
7:35 PM,24.4,-5.1,27,30.23,10.0,Calm,Calm,-,N/A,,Clear,0,2012-12-10 02:35:00
7:55 PM,22.1,-5.1,30,30.24,10.0,SE,3.5,-,N/A,,Clear,130,2012-12-10 02:55:00
8:15 PM,19.9,-5.8,32,30.24,10.0,Calm,Calm,-,N/A,,Clear,0,2012-12-10 03:15:00
8:35 PM,22.8,-3.8,31,30.24,10.0,Calm,Calm,-,N/A,,Clear,0,2012-12-10 03:35:00
8:55 PM,21.6,-3.6,33,30.25,10.0,ESE,3.5,-,N/A,,Clear,120,2012-12-10 03:55:00
9:15 PM,16.3,-5.3,38,30.26,10.0,Calm,Calm,-,N/A,,Clear,0,2012-12-10 04:15:00
9:35 PM,15.6,-0.9,48,30.26,10.0,East,4.6,-,N/A,,Clear,100,2012-12-10 04:35:00
9:55 PM,15.1,-1.8,47,30.26,10.0,ENE,4.6,-,N/A,,Clear,60,2012-12-10 04:55:00
10:15 PM,14.9,-2.4,46,30.25,10.0,East,3.5,-,N/A,,Clear,90,2012-12-10 05:15:00
10:35 PM,14.0,-2.6,48,30.26,10.0,NNE,3.5,-,N/A,,Clear,20,2012-12-10 05:35:00
10:55 PM,14.5,-3.1,46,30.27,10.0,NE,3.5,-,N/A,,Clear,40,2012-12-10 05:55:00
11:15 PM,14.0,-4.0,45,30.28,10.0,East,3.5,-,N/A,,Clear,80,2012-12-10 06:15:00
11:35 PM,14.5,-3.5,45,30.28,10.0,East,3.5,-,N/A,,Clear,80,2012-12-10 06:35:00
11:55 PM,12.0,-4.7,47,30.27,10.0,ENE,8.1,-,N/A,,Clear,70,2012-12-10 06:55:00